CO-58
1 28895U 05043F 09217.68999802 .00000103 00000-0 31041-4 0 03636
2 28895 098.0513 106.9054 0017786 189.8623 170.2258 14.59785994200953
FALCON
1 30776U 07006E 09218.84054226 .00000195 00000-0 17131-4 0 6299
2 30776 035.4327 152.0796 0001790 343.5835 016.4825 15.03280196132723
MAST
1 31126U 07012K 09218.08146277 .00000020 00000-0 14862-4 0 06565
2 31126 097.9858 270.5935 0095570 124.6100 236.4156 14.53510369122281
CAPE1
1 31130U 07012P 09218.72081104 -.00000075 00000-0 -68558-5 0 6663
2 31130 097.9852 269.2749 0103496 128.5251 232.5241 14.52077259122024
COMPASS
1 32787U 08021E 09217.80730855 .00000110 00000-0 20723-4 0 04325
2 32787 097.9396 281.2049 0014910 228.8205 131.1720 14.81635122068798
AAUSAT2
1 32788U 08021F 09217.70352410 .00000189 00000-0 30767-4 0 04293
2 32788 097.9381 281.1676 0014483 230.8122 129.1799 14.81759863068785
DO-64
1 32789U 08021G 09218.06306496 .00000117 00000-0 21649-4 0 04488
2 32789 097.9446 281.7195 0014705 227.3966 132.6010 14.81758687068838
CO-66
1 32791U 08021J 09218.73396049 .00000044 00000-0 12478-4 0 4229
2 32791 097.9406 282.1565 0015146 224.6054 135.3940 14.81461292 68892
RS-30
1 32953U 08025A 09217.52995585 .00000010 00000-0 00000-0 0 03742
2 32953 082.4973 225.9266 0020683 072.1667 288.1672 12.43002587054529
TACSAT-3
1 35001U 09028A 09218.69840913 .00001531 00000-0 44390-4 0 667
2 35001 040.4567 298.5637 0023647 179.8944 180.1879 15.39008262 12138
PHARMSAT
1 35002U 09028B 09218.59416585 .00001472 00000-0 41839-4 0 659
2 35002 040.4715 298.7217 0026416 183.3947 176.6691 15.39768254 12114
HAWKSAT1
1 35003U 09028C 09217.67340144 .00001291 00000-0 37143-4 0 668
2 35003 040.4718 304.0693 0027608 178.5297 181.5603 15.39996925 11985
CP6
1 35004U 09028D 09218.63487114 .00002880 00000-0 74593-4 0 615
2 35004 040.4636 298.0884 0027139 187.1403 172.9026 15.40359092 12123
AEROCUB3
1 35005U 09028E 09218.64407581 .00003142 00000-0 81280-4 0 621
2 35005 040.4765 298.2511 0027055 185.4557 174.5966 15.40196171 12122
POLLUX
1 35693U 09038E 09217.66236149 .00017252 00000-0 93492-4 0 00081
2 35693 051.6410 052.5025 0003590 057.7433 302.3908 15.80182265000946
CASTOR
1 35694U 09038F 09217.66300824 .00009707 00000-0 54765-4 0 00103
2 35694 051.6424 052.5087 0004262 059.0515 301.0902 15.79966325000948
